BAGASKAR Weather Reports


Display with metric or nautical units.
time (UTC)temp
F
wind
direction
speed
MPH
gust
MPH
rain 1hr
in
rain 24hr
in
rain mn
in
humidity
%
barometer
mb
20260906042124 49 333 11.0 18.0 0.00 0.00 0.00 1005.1
20260906040454 49 339 11.0 19.0 0.00 0.00 0.00 1004.9
20260906034454 49 338 11.0 19.0 0.00 0.00 0.00 1004.5
20260906032124 49 343 11.0 19.0 0.00 0.00 0.00 1004.2
20260906030124 49 340 12.0 20.0 0.00 0.00 0.00 1004.0
20260906024125 48 336 11.0 19.0 0.00 0.00 0.00 1003.8
20260906022124 48 338 12.0 21.0 0.00 0.00 0.00 1003.4
20260906020454 49 339 11.0 17.0 0.00 0.00 0.00 1003.3
20260906014456 49 345 10.0 18.0 0.00 0.00 0.00 1003.1
20260906012124 50 350 12.0 20.0 0.00 0.00 0.00 1002.8
20260906010123 50 345 11.0 21.0 0.00 0.00 0.00 1002.7
20260906004125 51 345 10.0 17.0 0.00 0.00 0.00 1002.4
20260906002455 51 348 10.0 15.0 0.00 0.00 0.00 1002.2
20260906000123 52 348 9.0 17.0 0.00 0.00 0.00 1001.9
20260905234123 53 356 12.0 19.0 0.00 0.00 0.00 1001.7
20260905232123 54 356 9.0 14.0 0.00 0.00 0.00 1001.5
20260905230123 55 10 11.0 15.0 0.00 0.00 0.00 1001.3
20260905224124 55 353 9.0 14.0 0.00 0.00 0.00 1001.1
20260905222122 54 352 9.0 14.0 0.00 0.00 0.00 1001.1
20260905220453 55 335 5.0 8.0 0.00 0.00 0.00 1000.9
20260905214454 55 350 7.0 11.0 0.00 0.00 0.00 1000.7
20260905212122 55 349 7.0 10.0 0.00 0.00 0.00 1000.5
20260905210123 56 347 6.0 11.0 0.00 0.00 0.00 1000.3
20260905204123 56 340 8.0 12.0 0.00 0.00 0.00 1000.1
20260905202123 57 340 7.0 11.0 0.00 0.00 0.00 999.9
20260905200122 58 337 9.0 13.0 0.00 0.00 0.00 999.6
20260905194453 58 336 8.0 13.0 0.00 0.00 0.00 999.4
20260905192123 59 331 8.0 14.0 0.00 0.00 0.00 999.3
20260905190123 59 327 8.0 14.0 0.00 0.00 0.00 999.3
20260905184123 59 323 8.0 12.0 0.00 0.00 0.00 999.1
20260905180451 59 330 7.0 11.0 0.00 0.00 0.00 998.9
20260905174122 59 330 7.0 11.0 0.00 0.00 0.00 998.7
20260905172451 59 328 8.0 11.0 0.00 0.00 0.00 998.6
20260905170122 60 326 9.0 13.0 0.00 0.00 0.00 998.3
20260905164453 61 304 7.0 9.0 0.00 0.00 0.00 998.0
20260905162124 61 312 7.0 11.0 0.00 0.00 0.00 997.8
20260905160453 62 318 6.0 10.0 0.00 0.00 0.00 997.6
20260905154123 62 326 6.0 10.0 0.00 0.00 0.00 997.4
20260905152123 63 334 8.0 14.0 0.00 0.00 0.00 997.3
20260905150121 64 281 4.0 9.0 0.00 0.00 0.00 997.2
20260905144122 62 264 13.0 17.0 0.00 0.00 0.00 997.1
20260905142122 62 258 15.0 18.0 0.00 0.00 0.00 996.8
20260905140122 63 257 15.0 19.0 0.00 0.00 0.00 996.6
20260905134121 64 261 16.0 22.0 0.00 0.00 0.00 996.5
20260905132122 64 259 15.0 19.0 0.00 0.00 0.00 996.4
20260905130456 65 258 15.0 18.0 0.00 0.00 0.00 996.4
20260905124121 64 255 16.0 21.0 0.00 0.00 0.00 996.3
20260905122122 65 256 16.0 20.0 0.00 0.00 0.00 996.2
20260905120121 66 254 16.0 19.0 0.00 0.00 0.00 996.1
20260905114121 66 244 15.0 17.0 0.00 0.00 0.00 996.0
20260905112123 64 246 14.0 16.0 0.00 0.00 0.00 996.0
20260905110120 64 241 13.0 15.0 0.00 0.00 0.00 995.9
20260905104452 64 241 11.0 13.0 0.00 0.00 0.00 995.8
20260905102452 62 312 2.0 5.0 0.00 0.00 0.00 995.6
20260905100120 62 338 4.0 8.0 0.00 0.00 0.00 995.4
20260905094450 61 339 5.0 8.0 0.00 0.00 0.00 995.3
20260905092120 61 312 4.0 6.0 0.00 0.00 0.00 995.2
20260905090120 60 303 5.0 9.0 0.00 0.00 0.00 995.1
20260905084452 59 308 5.0 9.0 0.00 0.00 0.00 994.9
20260905082120 58 332 3.0 7.0 0.00 0.00 0.00 994.9
20260905080120 58 338 6.0 11.0 0.00 0.00 0.00 994.8
20260905074450 58 330 5.0 8.0 0.00 0.00 0.00 994.7
20260905072120 57 329 5.0 8.0 0.00 0.00 0.00 994.5
20260905070122 57 330 6.0 9.0 0.00 0.00 0.00 994.4
20260905064120 58 335 5.0 9.0 0.00 0.00 0.00 994.3
20260905062120 57 333 3.0 6.0 0.00 0.00 0.00 994.1
20260905060120 55 325 4.0 6.0 0.00 0.00 0.00 994.1
20260905054120 55 309 2.0 5.0 0.00 0.00 0.00 994.0
20260905052120 53 331 2.0 4.0 0.00 0.00 0.00 994.0
20260905050120 53 2 3.0 4.0 0.00 0.00 0.00 994.1
20260905044121 53 10 4.0 6.0 0.00 0.00 0.00 994.1